カタログに戻る

STARLINK-35826

運用中通信VLEO
NORAD 66375·PAYLOAD·🇺🇸 United States

打ち上げ Nov 6, 2025 から Vandenberg Space Force Base

Loading…

次のパス (今後24時間)

TLE

最新Source: CelesTrak SupGP

元期: Sep 15, 2026, 03:29 UTC

1 66375C 25254AD  26258.14562500 -.00026201  00000+0 -77386-3 0  2585
2 66375  53.1593  68.4431 0001264  76.4430  82.0852 15.34413951    10

AllMySatでSTARLINK-35826をリアルタイム追跡

Download on the App Store